Change the Weather History Date:

Tuesday, February 4, 2014

  Actual Average (KRBD) Record (KRBD)
Temperature  
Mean Temperature 42 °F -  
Max Temperature 48 °F 55 °F 77 °F (2008)
Min Temperature 37 °F 37 °F 19 °F (2011)
Degree Days  
Heating Degree Days 22    
Moisture  
Dew Point 38 °F    
Average Humidity 86    
Maximum Humidity 100    
Minimum Humidity 71    
Precipitation  
Precipitation 0.07 in - - ()
Sea Level Pressure  
Sea Level Pressure 29.95 in    
Wind  
Wind Speed 6 mph (ESE)    
Max Wind Speed 16 mph    
Max Gust Speed 23 mph    
Visibility 8 miles    
Events Rain    
Averages and records for this station are not official NWS values.
T = Trace of Precipitation, MM = Missing Value Source: NWS Daily Summary

Daily Weather History Graph

Daily Weather History Graph

Search for Another Location

Airport or City:

Trip Planner

Search our weather history database for the weather conditions in past years. The results will help you decide how hot, cold, wet, or windy it might be!

Date:

Astronomy

Feb. 04, 2014 Rise Set
Actual Time 7:20 AM CST 6:04 PM CST
Civil Twilight 6:55 AM CST 6:29 PM CST
Nautical Twilight 6:25 AM CST 6:59 PM CST
Astronomical Twilight 5:57 AM CST 7:28 PM CST
Moon 10:19 AM CST (2/4) 11:37 PM CST (2/4)
Length of Visible Light 11h 34m
Length of Day
10h 43m
Waxing Crescent, 29% of the Moon is Illuminated
Feb 4
Waxing Crescent
Feb 6
First Quarter
Feb 14
Full
Feb 22
Last Quarter
Mar 1
New

Hourly Weather History & Observations

Time (CST) Temp. Windchill Dew Point Humidity Pressure Visibility Wind Dir Wind Speed Gust Speed Precip Events Conditions
12:53 AM 39.9 °F - 35.1 °F 83% 30.00 in 10.0 mi Calm Calm - N/A   Overcast
1:34 AM 39.2 °F 34.2 °F 35.6 °F 87% 29.97 in 8.0 mi ESE 6.9 mph - N/A   Overcast
1:53 AM 39.0 °F 34.0 °F 37.0 °F 93% 29.96 in 5.0 mi East 6.9 mph - 0.00 in Rain Light Rain
2:34 AM 37.4 °F 32.1 °F 37.4 °F 100% 29.95 in 4.0 mi East 6.9 mph - 0.00 in   Overcast
2:53 AM 37.9 °F 32.1 °F 37.0 °F 97% 29.95 in 3.0 mi East 8.1 mph - 0.00 in Rain Light Rain
3:53 AM 37.9 °F 33.5 °F 37.0 °F 97% 29.94 in 3.0 mi East 5.8 mph - 0.01 in Rain Light Rain
4:06 AM 37.4 °F 32.8 °F 37.4 °F 100% 29.94 in 3.0 mi ENE 5.8 mph - 0.00 in Rain Light Rain
4:32 AM 37.4 °F 33.8 °F 37.4 °F 100% 29.95 in 2.5 mi East 4.6 mph - 0.01 in Rain Light Rain
4:43 AM 37.4 °F 34.9 °F 37.4 °F 100% 29.95 in 3.0 mi East 3.5 mph - 0.01 in Rain Light Rain
4:53 AM 39.0 °F 36.8 °F 37.0 °F 93% 29.96 in 3.0 mi East 3.5 mph - 0.02 in Rain Light Rain
5:12 AM 39.2 °F 35.0 °F 37.4 °F 93% 29.96 in 2.5 mi East 5.8 mph - 0.01 in Rain Light Rain
5:21 AM 37.4 °F 33.8 °F 37.4 °F 100% 29.95 in 3.0 mi East 4.6 mph - 0.01 in Rain Light Rain
5:53 AM 39.0 °F 36.8 °F 37.9 °F 96% 29.96 in 4.0 mi ESE 3.5 mph - 0.02 in Rain Light Rain
6:29 AM 39.2 °F 35.9 °F 37.4 °F 93% 29.96 in 6.0 mi ESE 4.6 mph - 0.01 in Rain Light Rain
6:53 AM 39.0 °F 35.7 °F 37.0 °F 93% 29.96 in 8.0 mi ESE 4.6 mph - 0.01 in Rain Light Rain
7:26 AM 39.2 °F 34.2 °F 37.4 °F 93% 29.95 in 6.0 mi ESE 6.9 mph - 0.01 in Rain Light Rain
7:53 AM 39.0 °F 35.7 °F 37.0 °F 93% 29.95 in 8.0 mi SE 4.6 mph - 0.01 in   Overcast
8:06 AM 39.2 °F 37.0 °F 37.4 °F 93% 29.94 in 8.0 mi SE 3.5 mph - N/A   Overcast
8:35 AM 39.2 °F 34.2 °F 37.4 °F 93% 29.94 in 10.0 mi SSE 6.9 mph - N/A   Overcast
8:53 AM 39.0 °F 35.7 °F 37.9 °F 96% 29.95 in 10.0 mi SSE 4.6 mph - N/A   Overcast
9:53 AM 41.0 °F 36.4 °F 39.0 °F 93% 29.94 in 10.0 mi SSE 6.9 mph - N/A   Overcast
10:08 AM 41.0 °F 35.2 °F 39.2 °F 93% 29.93 in 10.0 mi SSE 9.2 mph - N/A   Overcast
10:53 AM 43.0 °F 38.8 °F 39.9 °F 89% 29.94 in 10.0 mi South 6.9 mph - N/A   Overcast
11:50 AM 44.6 °F 42.2 °F 39.2 °F 81% 29.92 in 10.0 mi SSW 4.6 mph - N/A   Overcast
11:53 AM 44.1 °F 42.5 °F 39.9 °F 85% 29.92 in 10.0 mi South 3.5 mph - N/A   Overcast
12:53 PM 45.0 °F - 39.9 °F 82% 29.90 in 10.0 mi Calm Calm - N/A   Overcast
1:24 PM 46.4 °F 42.9 °F 39.2 °F 76% 29.89 in 10.0 mi WSW 6.9 mph - N/A   Overcast
1:53 PM 46.9 °F - 39.9 °F 77% 29.88 in 10.0 mi West 9.2 mph - N/A   Overcast
2:50 PM 48.2 °F - 39.2 °F 71% 29.87 in 10.0 mi NW 12.7 mph - N/A   Overcast
2:53 PM 48.0 °F - 39.9 °F 74% 29.88 in 10.0 mi NW 10.4 mph - N/A   Overcast
3:00 PM 46.4 °F 42.4 °F 39.2 °F 76% 29.88 in 10.0 mi NW 8.1 mph - N/A   Overcast
3:53 PM 48.0 °F - 39.0 °F 71% 29.88 in 10.0 mi NW 11.5 mph - N/A   Overcast
4:09 PM 48.2 °F - 39.2 °F 71% 29.88 in 10.0 mi WNW 6.9 mph - N/A   Mostly Cloudy
4:53 PM 48.0 °F - 39.0 °F 71% 29.91 in 10.0 mi Variable 5.8 mph - N/A   Mostly Cloudy
5:53 PM 46.0 °F 43.9 °F 37.9 °F 73% 29.94 in 10.0 mi WNW 4.6 mph - N/A   Scattered Clouds
6:53 PM 46.0 °F 41.9 °F 37.9 °F 73% 29.98 in 10.0 mi WNW 8.1 mph - N/A   Mostly Cloudy
7:53 PM 43.0 °F 39.5 °F 36.0 °F 76% 30.01 in 10.0 mi WNW 5.8 mph - N/A   Clear
8:53 PM 42.1 °F 38.4 °F 35.1 °F 76% 30.04 in 10.0 mi NW 5.8 mph - N/A   Clear
9:53 PM 42.1 °F 34.5 °F 34.0 °F 73% 30.06 in 10.0 mi NW 15.0 mph 20.7 mph N/A   Clear
10:53 PM 39.9 °F 32.5 °F 32.0 °F 73% 30.09 in 10.0 mi NW 12.7 mph 21.9 mph N/A   Clear
11:53 PM 39.0 °F 30.3 °F 32.0 °F 76% 30.12 in 10.0 mi NW 16.1 mph 23.0 mph N/A   Clear